Location: Sternwarte_Laufen
(47.9344°N, 12.9346°E)
Time: 08:52:20
(UTC+02:00)

Tiangong 2 - Visible Passes

Search period start: 25 June 2017 00:00
Search period end: 05 July 2017 00:00
Orbit: 391 x 396 km, 42.8° (Epoch: 24 June)

Date Brightness Start Highest point End Pass type
(mag) Time Alt. Az. Time Alt. Az. Time Alt. Az.
02 Jul 2.8 04:23:24 10° SSW 04:25:52 20° SSE 04:28:20 10° ESE visible
03 Jul 3.1 03:28:56 15° SSE 03:29:22 15° SSE 03:31:20 10° ESE visible
04 Jul 2.3 04:06:58 14° SW 04:09:10 26° SSE 04:11:56 10° ESE visible
